Vorticity
nan nan nan nan nan nan nan nan nan nan nan nan nan nan nan nan nan nan nan nan nan nan nan nan nan nan nan nan nan nan nan nan nan nan nan nan nan nan nan nan nan nan nan nan nan
nan 7 7 7 7 8 8 7 8 8 7 7 7 7 8 12 20 15 11 9 10 4 1 5 5 8 4 2 13 9 3 -1 14 16 7 9 7 3 1 6 9 7 13 8 nan
nan 7 6 7 8 7 8 8 7 7 7 7 7 8 7 15 19 17 10 8 7 3 -2 2 10 8 5 16 15 7 -3 2 8 8 7 5 7 4 4 9 9 6 4 6 nan
nan 7 7 7 7 8 8 8 8 8 8 8 9 9 13 14 11 12 11 7 8 9 7 8 9 5 10 12 8 8 6 12 7 4 12 2 5 7 13 15 12 9 7 5 nan
nan 7 6 9 8 7 7 8 9 9 10 10 9 11 16 9 10 11 9 9 9 7 5 10 8 5 8 2 9 3 2 21 9 5 2 14 7 9 12 10 10 8 6 4 nan
nan 8 7 7 7 8 8 8 8 10 11 11 12 10 9 6 11 12 10 7 4 4 5 7 4 7 5 9 6 5 7 15 7 2 5 15 8 4 8 9 7 6 6 6 nan
nan 6 7 8 8 7 8 9 11 10 12 16 13 7 5 12 9 11 8 4 5 4 4 6 6 10 6 17 16 3 4 1 8 5 9 2 8 4 9 9 6 6 5 8 nan
nan 3 6 9 9 8 9 10 11 13 13 15 11 5 7 10 11 13 6 6 7 3 5 9 10 6 4 10 6 2 17 10 3 -2 4 7 4 10 -2 6 6 7 6 6 nan
nan 4 5 9 9 9 9 10 17 15 14 9 7 6 8 8 13 8 6 8 7 8 5 5 11 10 10 11 7 7 8 7 4 17 18 8 7 -4 7 10 7 6 8 6 nan
nan 5 5 8 9 10 15 21 15 16 15 3 12 10 15 11 14 9 8 7 6 9 6 7 8 11 10 8 7 9 2 8 5 10 18 9 6 5 15 7 17 7 7 7 nan
nan 7 6 8 9 11 21 22 15 12 2 9 12 8 13 14 9 8 8 7 7 8 10 10 5 9 7 3 3 5 14 10 4 4 4 1 10 10 -1 17 10 7 6 8 nan
nan 8 4 7 9 18 16 3 3 8 22 16 -7 8 11 9 6 10 8 7 9 7 9 5 6 7 6 6 6 10 13 -0 5 12 -3 9 7 8 11 15 11 4 7 9 nan
nan 9 7 7 21 24 6 6 2 14 19 20 10 9 9 2 8 12 6 5 7 8 7 4 7 8 6 10 13 8 3 13 5 7 5 9 9 8 18 10 14 2 12 12 nan
nan 10 6 21 19 13 18 8 7 10 17 17 10 16 12 7 17 12 7 3 3 11 10 9 8 15 10 11 7 8 8 2 14 12 5 3 7 18 8 11 11 14 5 8 nan
nan 11 15 17 13 7 7 4 12 11 14 14 11 9 11 6 12 14 10 4 6 8 9 8 12 10 11 9 4 6 11 11 1 1 13 12 5 9 4 12 6 14 7 10 nan
nan 10 21 18 11 5 1 13 13 6 18 11 7 8 8 8 2 9 3 8 9 10 13 9 13 11 6 6 6 7 7 7 12 13 10 6 6 9 11 10 13 15 6 9 nan
nan 13 15 6 7 12 15 13 9 7 14 15 8 10 6 9 5 6 10 8 5 11 11 10 7 7 13 11 11 7 8 10 9 9 10 10 7 5 14 12 8 13 19 19 nan
nan 27 21 5 5 9 10 9 7 14 3 7 15 11 7 10 8 6 7 6 9 6 10 12 11 7 8 11 8 11 6 3 3 3 10 9 10 15 15 9 11 4 9 17 nan
nan 26 9 17 9 7 12 9 -0 5 13 9 10 12 9 7 9 9 9 11 13 4 7 16 26 17 9 10 7 7 9 2 2 6 12 18 11 10 13 10 5 -0 8 6 nan
nan 15 21 16 12 8 7 -1 2 17 13 14 10 9 9 6 7 10 7 12 7 8 6 12 20 17 7 9 10 9 13 9 9 9 9 11 15 20 16 4 5 13 18 9 nan
nan 12 21 7 5 8 9 7 11 7 8 9 14 7 11 8 6 2 4 14 10 7 2 6 11 11 8 6 10 8 3 7 15 12 8 6 17 16 11 25 25 10 -3 6 nan
nan 12 9 5 5 8 8 5 11 6 10 4 8 17 20 9 13 7 13 -2 6 9 19 16 10 14 19 12 9 10 9 6 7 8 6 7 5 20 12 13 15 12 6 8 nan
nan 14 11 8 9 7 9 4 6 15 11 9 5 11 13 14 12 9 13 8 10 6 8 17 17 10 8 5 10 16 15 16 1 8 11 6 9 10 2 -1 7 9 6 5 nan
nan 16 14 7 3 3 8 18 11 4 7 17 9 11 5 11 10 10 -0 7 4 8 10 9 4 7 -0 2 26 16 7 7 12 13 10 13 7 -1 3 3 6 6 8 10 nan
nan 3 7 13 13 11 7 6 12 14 7 4 11 12 8 8 6 7 -0 10 6 9 6 7 6 5 5 9 9 15 21 8 9 3 11 12 12 4 4 10 7 4 6 8 nan
nan 5 8 11 10 10 13 13 13 13 13 6 9 7 8 13 13 15 11 4 11 6 6 4 6 7 8 15 11 7 6 14 13 6 4 8 16 15 14 -0 1 7 7 5 nan
nan nan nan nan nan nan nan nan nan nan nan nan nan nan nan nan nan nan nan nan nan nan nan nan nan nan nan nan nan nan nan nan nan nan nan nan nan nan nan nan nan nan nan nan nan
CAPE
2 1 1 1 2 2 3 2 2 2 2 1 2 1 1 1 0 0 0 0 0 337 146 0 45 124 526 747 580 0 382 157 75 37 47 6 6 1 0 0 3 5 0 0 0
3 3 2 1 1 2 3 2 2 1 1 1 1 1 1 1 0 0 0 0 0 127 0 0 0 276 837 808 179 0 228 380 38 29 30 15 0 0 0 0 7 0 0 0 0
3 1 2 4 1 1 2 3 2 1 1 1 0 0 0 0 0 0 0 0 0 44 0 0 0 186 496 644 34 273 390 292 61 42 34 14 0 2 0 1 0 0 0 0 0
4 3 1 4 1 1 1 2 2 2 1 0 0 0 0 0 0 0 0 0 0 0 0 0 0 0 314 70 0 0 15 86 124 45 50 15 26 2 26 1 0 0 0 0 0
1 3 2 2 2 2 1 2 2 1 1 1 0 0 0 0 0 0 0 0 0 0 0 0 0 0 26 41 82 37 15 179 9 76 42 8 37 46 14 0 0 0 0 0 2
4 5 5 4 4 5 3 3 1 1 0 1 0 0 0 0 0 0 0 0 0 0 0 0 0 0 0 10 107 98 26 112 183 218 37 65 13 22 0 0 0 0 0 1 3
2 3 1 3 5 4 4 2 1 0 0 0 0 0 0 0 0 0 0 0 0 0 0 0 0 0 0 16 71 3 1 0 43 111 74 142 123 142 42 8 0 5 0 2 0
2 3 1 0 4 3 2 1 0 0 0 0 0 0 0 0 0 0 0 0 0 0 0 0 0 0 0 0 8 6 5 17 48 55 89 70 29 238 137 64 27 3 10 0 0
1 2 1 0 3 1 0 0 0 0 0 0 0 0 0 0 0 0 0 0 0 0 0 0 0 0 0 1 26 127 119 25 0 0 52 194 35 14 120 184 105 21 44 13 0
2 3 1 2 1 0 0 0 0 0 0 0 0 0 0 0 0 0 0 0 0 0 0 0 0 0 0 0 57 54 19 0 0 8 57 7 0 16 89 286 272 79 26 51 3
0 2 1 0 0 0 0 0 0 0 0 0 0 0 0 0 0 0 0 0 0 0 0 0 0 0 0 0 0 21 4 21 33 21 30 12 1 3 137 85 268 268 124 34 30
1 0 0 0 0 0 0 0 0 0 0 0 0 0 0 0 0 0 0 0 0 0 0 0 0 0 0 0 0 1 28 48 34 42 48 100 76 55 189 353 474 404 287 81 1
0 1 0 0 0 0 0 0 0 0 0 0 0 0 0 0 0 0 0 0 0 0 0 0 0 0 0 0 0 0 17 134 93 2 7 30 77 107 14 342 675 339 284 163 7
0 0 0 1 0 0 0 0 0 0 0 0 0 0 0 0 0 0 0 0 0 0 0 0 0 0 0 0 0 0 7 27 22 4 4 0 18 266 148 97 731 629 486 269 94
0 0 1 0 0 0 0 0 0 0 0 0 0 0 0 0 0 0 0 0 0 0 0 0 0 0 0 0 0 0 0 34 14 16 29 19 19 95 95 141 197 319 405 457 270
0 0 1 0 0 0 0 0 0 0 0 0 0 0 0 0 0 0 0 0 0 0 0 0 0 0 0 0 0 0 0 0 13 12 14 24 50 92 62 138 57 120 362 480 446
0 0 1 0 0 0 0 0 0 0 0 0 0 0 0 0 0 0 0 0 0 0 0 0 0 0 0 0 0 0 0 0 0 0 0 0 32 24 13 130 176 53 115 364 759
0 0 0 0 0 0 0 0 0 0 0 0 0 0 0 0 0 0 0 0 0 0 0 0 0 0 0 0 0 0 0 0 0 0 0 0 0 12 65 43 104 55 118 15 470
0 0 0 0 0 0 0 0 0 0 0 0 0 0 0 0 0 0 0 0 0 0 0 0 0 0 0 0 0 0 0 0 0 0 1 0 2 0 79 3 108 39 9 27 92
0 0 0 0 0 0 0 0 0 0 0 0 0 0 0 0 0 0 0 0 0 0 0 0 0 0 0 0 0 0 0 0 0 0 11 0 1 5 178 39 22 0 159 186 212
0 0 0 0 0 0 0 0 0 0 0 0 0 0 0 0 0 0 0 0 0 0 0 0 0 0 0 0 0 0 0 0 0 0 0 0 1 121 246 177 42 11 227 854 517
0 0 0 0 0 0 0 0 0 0 0 0 0 0 0 0 0 0 0 0 0 0 0 0 0 0 0 0 0 0 0 0 0 0 0 0 323 522 321 1168 1013 1366 1755 2144 1636
0 0 0 0 0 0 0 0 0 0 0 0 0 0 0 0 0 0 0 0 0 0 0 0 0 0 4 0 0 0 0 0 0 0 45 2 292 1328 1758 2170 1956 1946 2128 2242 2731
0 0 2 0 0 0 0 0 0 0 0 0 0 0 0 0 2 3 0 0 0 0 0 0 0 0 2 17 0 0 0 0 0 0 0 3 1850 2195 978 1248 1300 1592 1923 2025 1904
0 0 4 4 19 2 0 0 3 0 0 0 0 0 0 2 8 2 2 0 0 0 0 0 0 0 0 0 0 0 0 0 0 0 0 177 1822 1369 463 828 1095 846 1132 1516 1439
0 0 0 0 0 0 0 0 0 1 0 0 0 0 1 8 8 5 7 0 0 0 0 0 1 0 0 0 0 0 0 2 0 0 0 0 1317 1216 431 955 924 944 830 788 716
7 13 2 0 0 0 0 23 12 0 0 0 0 5 10 2 0 1 0 5 4 0 0 0 0 0 0 0 6 0 0 0 0 0 0 0 780 504 765 902 846 830 830 685 408